Regional Weather Roundup
Issued by NWS

Home | Current Version | Previous Version | Text Only | Print | Product List | Glossary Off
Versions: 1 2 3 4 5 6 7 8 9 10 11 12 13 14 15 16 17 18 19 20 21 22 23 24 25 26 27 28 29 30 31 32 33 34 35 36 37 38 39 40 41 42 43 44 45 46 47 48 49 50

000
ASUS43 KMKX 181511
RWRWI

WISCONSIN REGIONAL WEATHER ROUNDUP
NATIONAL WEATHER SERVICE MILWAUKEE/SULLIVAN WI
900 AM CST WED JAN 18 2017

NOTE: "FAIR" INDICATES FEW OR NO CLOUDS BELOW 12,000 FEET WITH NO
SIGNIFICANT WEATHER AND/OR OBSTRUCTIONS TO VISIBILITY.

WIZ001-002-006>008-014>016-023>028-181600-
NORTHWEST WISCONSIN

CITY           SKY/WX    TMP DP  RH WIND       PRES   REMARKS
SUPERIOR ARPT  PTCLDY    30  25  83 SW13      29.83S WCI  20
ASHLAND        CLEAR     33  25  72 SW16      29.84R WCI  23
HAYWARD        CLOUDY    30  24  78 SW13      29.86F WCI  20
SIREN          CLOUDY    30  26  83 S8        29.87F WCI  23
CUMBERLAND     CLOUDY    27  23  86 S9        29.89S WCI  17
RICE LAKE      CLOUDY    27  25  91 S6        29.93S WCI  21
CHETEK         CLOUDY    28  25  90 S7        29.92R WCI  20
LADYSMITH      CLOUDY    29  27  94 S7        29.93R WCI  22
EAU CLAIRE     CLOUDY    28  25  88 S6        29.93F WCI  22
MENOMONIE      CLOUDY    29  26  88 MISG      29.94R
NEW RICHMOND   CLOUDY    30  27  86 SW12      29.90F WCI  21
OSCEOLA        CLOUDY    29  29 100 S7        29.94R WCI  22
$$

WIZ003>005-009-010-017-018-181600-
NORTH CENTRAL WISCONSIN

CITY           SKY/WX    TMP DP  RH WIND       PRES   REMARKS
MANITOWISH WTR CLOUDY    28  28 100 SW10G17   29.85R WCI  18
ARBOR VITAE    CLOUDY    29  28  95 SW9       29.87S WCI  21
WOODRUFF       CLOUDY    29  28  95 SW9       29.87S WCI  21
RHINELANDER    CLOUDY    29  28  96 SW10G20   29.90R WCI  20
EAGLE RIVER    CLOUDY    28  28 100 SW8       29.86S WCI  20
LAND O LAKES   CLOUDY    29  28  99 SW7       29.86S WCI  22
PHILLIPS       CLOUDY   N/A N/A N/A SW8       29.89R
TOMAHAWK       CLOUDY    28  27  96 CALM      29.92R
MEDFORD        CLOUDY    27  26  96 SW8       29.93R FOG     WCI  19
MERRILL        CLOUDY    29  29 100 CALM        N/A
$$

WIZ029-030-035-036-043>047-181600-
CENTRAL WISCONSIN

CITY           SKY/WX    TMP DP  RH WIND       PRES   REMARKS
WAUSAU         CLOUDY    29  29 100 SW10      29.94F WCI  20
MOSINEE        CLOUDY    30  30 100 S10       29.96F WCI  21
MARSHFIELD     CLOUDY    29  28  96 SW12      29.95F WCI  19
STEVENS POINT  CLOUDY    29  29 100 SW10      29.99S WCI  20
WAUPACA        CLOUDY    34  33  95 SW7       30.01S WCI  28
WAUTOMA        CLOUDY    33  32  96 SW10      30.03S WCI  25
WISC RAPIDS    CLOUDY    30  30 100 SW12G21   30.01S WCI  20
CAMP DOUGLAS   MOSUNNY   32  28  86 S8        30.01F WCI  25
$$

WIZ011>013-019>022-031-037>040-048>050-181600-
NORTHEAST WISCONSIN

CITY           SKY/WX    TMP DP  RH WIND       PRES   REMARKS
ANTIGO         CLOUDY    28  28 100 SW9       29.93S WCI  20
SHAWANO        CLOUDY    34  33  95 SW8       29.99R WCI  27
OCONTO         CLOUDY    32  32  99 SW12      29.99R WCI  23
STURGEON BAY   FOG       32  31  96 SW12      29.99R VSB 3/4 WCI  23
GREEN BAY      CLOUDY    34  33  96 SW10G22   30.00F FOG     WCI  26
MANITOWOC      CLOUDY    33  32  96 MISG      30.02F FOG
APPLETON         N/A     32  32 100 SW16      30.00S FOG     WCI  21
CLINTONVILLE   CLOUDY    32  32 100 SW10      29.99S WCI  24
OSHKOSH        CLOUDY    32  32 100 SW10      30.03S FOG     WCI  24
$$

WIZ032>034-041-042-053>061-181600-
SOUTHWEST WISCONSIN

CITY           SKY/WX    TMP DP  RH WIND       PRES   REMARKS
LA CROSSE      CLOUDY    33  28  81 S9        30.02F WCI  25
SPARTA         CLOUDY    31  29  91 S7        30.02F WCI  25
VIROQUA        CLOUDY    29  29 100 S8        30.02F WCI  21
BOSCOBEL       CLOUDY    33  29  85 S6        30.07F WCI  28
PRAIRIE DU CHI CLOUDY    32  29  88 S3        30.06F
PLATTEVILLE    CLOUDY    31  31 100 S7        30.07F WCI  24
$$

WIZ056-057-062-063-064-067-068-181600-
SOUTH CENTRAL WISCONSIN

CITY           SKY/WX    TMP DP  RH WIND       PRES   REMARKS
REEDSBURG      CLOUDY    32  32 100 SW8       30.05F WCI  24
BARABOO/DELLS  CLOUDY    31  31  99 SW9       30.05S WCI  23
LONE ROCK      CLOUDY    32  29  88 SW6       30.08F WCI  26
MINERAL POINT  CLOUDY    32  32 100 S6        30.06F FOG     WCI  26
MADISON        CLOUDY    32  30  92 SW8       30.08S WCI  25
MIDDLETON      CLOUDY    33  33 100 SW8       30.08S WCI  26
WATERTOWN      CLOUDY    32  32 100 SW8       30.08R FOG     WCI  24
MONROE         CLOUDY    32  32 100 SW10      30.08F FOG     WCI  24
JANESVILLE     CLOUDY    34  34 100 SW7       30.10F FOG     WCI  28
$$

WIZ051-052-058>065-066-070>072-181600-
SOUTHEAST WISCONSIN

CITY           SKY/WX    TMP DP  RH WIND       PRES   REMARKS
MILWAUKEE      CLOUDY    35  32  88 W10       30.08S FOG     WCI  27
WAUKESHA       FOG       30  30 100 SW9       30.09R VSB 1/2 WCI  22
MILWAUKEE/TIMM CLOUDY    34  30  86 SW12      30.08S FOG     WCI  25
RACINE         CLOUDY    34  32  92 W9        30.10F FOG     WCI  27
KENOSHA        CLOUDY    34  32  92 SW15      30.10S FOG     WCI  24
FOND DU LAC    CLOUDY    33  31  92 SW8       30.05S FOG     WCI  26
SHEBOYGAN      CLOUDY    33  31  92 W15       30.04R WCI  23
WEST BEND      CLOUDY    32  32 100 W7        30.05S FOG     WCI  26
JUNEAU         FOG       31  31 100 SW13      30.08R VSB 1/2 WCI  21
$$

LSZ147-162-181600-
LAKE SUPERIOR

STATION/POSITION TIME  TEMP    WIND        PRES    WAVE
                       AIR SEA DIR/SP/G            HT/PER
                 (UTC) (F)     (DEG/KT/KT) (MB)    (FT/S)
DEVILS ISLAND    1500   33     240/ 20/ 23 1010.1R
PORT WING        1430   32     210/  8/ 12 1010.2R
SAXON HARBOR     1430   36     190/ 14/ 22 1009.1R
$$

LMZ867-665-643>646-181600-
LAKE MICHIGAN

STATION/POSITION TIME  TEMP    WIND        PRES    WAVE
                       AIR SEA DIR/SP/G            HT/PER
                 (UTC) (F)     (DEG/KT/KT) (MB)    (FT/S)
NORTHPORT PIER   1500   32     220/  8/ 16 1014.2
SISTER BAY       1450   32     230/ 12/ 15   N/A
ALGOMA LAKESHORE 1254          260/ 10/ 12   N/A
KEWAUNEE LAKESHO 1442   32     240/  6/ 10 1015.5S
SHEBOYGAN LAKESH 1500   33     240/ 12/ 14 1017.8R
PORT WASHINGTON  1430   35     250/  5/ 12 1018.6S
MILWAUKEE LAKESH 1450   35     240/ 12/ 15   N/A
KENOSHA   LAKESH 1500   35     240/  9/ 13 1019.6
$$

TC  - TEMPERATURE IN CELSIUS
VSB - VISIBILITY IN STATUTE MILES
WCI - WIND CHILL INDEX
HX  - HEAT INDEX




USA.gov is the U.S. government's official web portal to all federal, state and local government web resources and services.